Regional Weather Roundup
Issued by NWS

Home | Current Version | Previous Version | Graphics & Text | Print | Product List | Glossary Off
Versions: 1 2 3 4 5 6 7 8 9 10 11 12 13 14 15 16 17 18 19 20 21 22 23 24 25 26 27 28 29 30 31 32 33 34 35 36 37 38 39 40 41 42 43 44 45 46 47 48 49 50

000
ASUS43 KMKX 210511
RWRWI

WISCONSIN REGIONAL WEATHER ROUNDUP
NATIONAL WEATHER SERVICE MILWAUKEE/SULLIVAN WI
1100 PM CST MON NOV 20 2017

NOTE: "FAIR" INDICATES FEW OR NO CLOUDS BELOW 12,000 FEET WITH NO
SIGNIFICANT WEATHER AND/OR OBSTRUCTIONS TO VISIBILITY.

WIZ001-002-006>008-014>016-023>028-210600-
NORTHWEST WISCONSIN

CITY           SKY/WX    TMP DP  RH WIND       PRES   REMARKS
SUPERIOR ARPT  CLOUDY    37  28  71 W10       29.33R WCI  30
ASHLAND        CLOUDY    40  27  59 SW16G23   29.31R WCI  31
HAYWARD        CLOUDY    41  27  57 SW9G21    29.36R
SIREN          CLOUDY    40  28  61 W10G18    29.42R WCI  33
CUMBERLAND     CLOUDY    37  27  65 W14       29.43R WCI  29
RICE LAKE      CLOUDY    39  28  63 SW9       29.44R WCI  33
CHETEK         CLOUDY    41  28  61 W9G17     29.43S
LADYSMITH      CLOUDY    39  29  68 SW8       29.42S WCI  33
EAU CLAIRE     CLOUDY    40  27  59 SW9       29.45S WCI  34
MENOMONIE      CLOUDY    42  27  56 SW10      29.46S
NEW RICHMOND   NOT AVBL
OSCEOLA        CLOUDY    42  28  58 W14G20    29.50R
$$

WIZ003>005-009-010-017-018-210600-
NORTH CENTRAL WISCONSIN

CITY           SKY/WX    TMP DP  RH WIND       PRES   REMARKS
MANITOWISH WTR CLOUDY    36  30  79 SW7       29.31F WCI  31
ARBOR VITAE    CLOUDY    42  31  67 W12G18    29.33S
WOODRUFF       CLOUDY    42  31  67 W12G18    29.33S
RHINELANDER    CLOUDY    39  30  70 SW10      29.35F WCI  32
EAGLE RIVER    CLOUDY    37  28  70 SW12      29.31F WCI  29
LAND O LAKES   CLOUDY    39  29  67 SW8       29.31F WCI  34
PHILLIPS       CLOUDY    37  29  72 SW10G17   29.36S WCI  30
TOMAHAWK       PTCLDY    40  28  62 W5        29.38S
MEDFORD        CLEAR     38  28  67 SW12      29.41S WCI  31
MERRILL        CLEAR     39  30  69 SW10      29.40F WCI  33
$$

WIZ029-030-035-036-043>047-210600-
CENTRAL WISCONSIN

CITY           SKY/WX    TMP DP  RH WIND       PRES   REMARKS
WAUSAU         CLEAR     42  29  59 SW14G20   29.41R
MOSINEE        NOT AVBL
MARSHFIELD     CLEAR     41  27  57 W12       29.44R
STEVENS POINT  CLEAR     45  28  52 W15G21    29.45R
WAUPACA        CLOUDY    49  30  46 SW12G18   29.45S
WAUTOMA        NOT AVBL
WISC RAPIDS    CLEAR     46  29  51 W9G18     29.48R
CAMP DOUGLAS   CLEAR    N/A N/A N/A W15G21    29.51R
$$

WIZ011>013-019>022-031-037>040-048>050-210600-
NORTHEAST WISCONSIN

CITY           SKY/WX    TMP DP  RH WIND       PRES   REMARKS
ANTIGO         CLEAR     39  30  70 SW14      29.39S WCI  31
SHAWANO        CLEAR     47  31  54 SW6       29.40F
OCONTO         CLOUDY    46  32  57 SW10G16   29.40F
STURGEON BAY   CLOUDY    48  33  56 SW24G31   29.39F
GREEN BAY      CLOUDY    45  34  65 S13       29.43F
MANITOWOC      NOT AVBL
APPLETON       PTCLDY    45  28  53 SW14      29.44S
CLINTONVILLE   CLOUDY    46  28  49 SW9G16    29.42S
OSHKOSH        CLEAR     46  32  58 SW18G28   29.47R
$$

WIZ032>034-041-042-053>061-210600-
SOUTHWEST WISCONSIN

CITY           SKY/WX    TMP DP  RH WIND       PRES   REMARKS
LA CROSSE      PTCLDY    48  29  47 SW8       29.53R
SPARTA         CLEAR     46  30  52 SW6       29.53R
VIROQUA        PTCLDY    45  32  60 W12       29.55S
BOSCOBEL       CLEAR     47  30  51 SW9       29.58R
PRAIRIE DU CHI CLEAR     48  29  47 SW9       29.58S
PLATTEVILLE    PTCLDY    47  33  57 SW16      29.60S
$$

WIZ056-057-062-063-064-067-068-210600-
SOUTH CENTRAL WISCONSIN

CITY           SKY/WX    TMP DP  RH WIND       PRES   REMARKS
REEDSBURG      PTCLDY    47  30  51 SW9       29.52F
BARABOO/DELLS  PTCLDY    47  29  49 SW13G24   29.52S
LONE ROCK      CLOUDY    48  32  53 SW10      29.57R
MINERAL POINT  PTCLDY    48  32  53 SW15      29.58R
MADISON        PTCLDY    49  31  49 SW9G23    29.55F
MIDDLETON      CLEAR     48  31  51 SW16      29.56S
WATERTOWN      PTCLDY    47  32  56 SW21G28   29.55F
MONROE         CLEAR     43  32  65 SW22      29.59S
JANESVILLE     PTCLDY    48  32  53 SW16G24   29.60F
$$

WIZ051-052-058>065-066-070>072-210600-
SOUTHEAST WISCONSIN

CITY           SKY/WX    TMP DP  RH WIND       PRES   REMARKS
MILWAUKEE      MOCLDY    47  32  56 SW21G29   29.59F
WAUKESHA       PTCLDY    43  32  65 SW14G26   29.58F
MILWAUKEE/TIMM CLOUDY    46  28  49 SW20G30   29.57F
RACINE         MOCLDY    46  31  55 SW16G29   29.63F
BURLINGTON     CLOUDY    45  37  72 S20G32    29.60F
KENOSHA        MOCLDY    46  30  53 SW22G29   29.61F
FOND DU LAC    CLEAR     47  31  53 SW20G30   29.50S
SHEBOYGAN      CLOUDY    49  32  52 SW20G28   29.50F
WEST BEND      PTCLDY    46  30  53 SW18G28   29.53F
JUNEAU         CLEAR     45  32  59 SW21G30   29.55R
$$

LSZ147-162-210600-
LAKE SUPERIOR

STATION/POSITION TIME  TEMP    WIND        PRES    WAVE
                       AIR SEA DIR/SP/G            HT/PER
                 (UTC) (F)     (DEG/KT/KT) (MB)    (FT/S)
DEVILS ISLAND    0500   42     240/ 24/ 29  991.0R
SAXON HARBOR     0430   43     210/  9/ 16  991.9F
$$

LMZ867-665-643>646-210600-
LAKE MICHIGAN

STATION/POSITION TIME  TEMP    WIND        PRES    WAVE
                       AIR SEA DIR/SP/G            HT/PER
                 (UTC) (F)     (DEG/KT/KT) (MB)    (FT/S)
N MID LAKE BUOY  0450   49 48  200/ 29/ 35  994.7F  10/ 8
NORTHPORT PIER   0440   50     200/ 10/ 19  994.9F
KEWAUNEE LAKESHO 0442   51     210/ 18/ 23  996.7S
SHEBOYGAN LAKESH 0500   50     220/ 16/ 18  999.2F
PORT WASHINGTON  0430   50     220/ 11/ 21 1001.7F
MILWAUKEE LAKESH 0450   47     220/ 19/ 25   N/A
S MID LAKE BUOY  0450   47 48  220/ 29/ 37 1003.7F   9/ 7
KENOSHA   LAKESH 0500   47     220/ 14/ 25 1003.4
$$

TC  - TEMPERATURE IN CELSIUS
VSB - VISIBILITY IN STATUTE MILES
WCI - WIND CHILL INDEX
HX  - HEAT INDEX





USA.gov is the U.S. government's official web portal to all federal, state and local government web resources and services.